CAPE
855 611 800 0 0 2 27 32 52 73 117 102 137 85 96 116 115 58 583 649 713 919 1594 1960 1799 1738 1405 1417 1634 1764 1352 1296 1514 1243 1289 1328 1352 1283 1158 955 855 731 736 1225 968 892 880 1015 946
845 771 0 0 0 0 6 55 63 78 116 128 107 89 94 114 432 482 445 777 877 1120 1651 1701 1811 1605 1616 1377 1557 1210 870 1087 1168 1152 1269 1383 1178 1005 845 771 635 830 758 926 1026 1162 1316 1322 1169
158 106 0 0 0 0 20 29 10 62 108 148 150 113 50 106 408 402 685 734 984 1338 1687 1740 1553 1513 1551 1488 1622 1023 1279 902 811 640 1045 971 894 1001 1074 1108 985 972 1119 1219 788 1323 1182 1142 1061
198 0 0 0 0 0 55 16 9 75 125 116 117 67 106 175 345 559 793 706 946 1284 1683 1779 1881 1820 1709 1431 1667 1459 1387 1138 1273 1258 816 650 987 749 827 1193 1200 726 777 676 1177 1054 996 1132 944
217 18 0 0 0 1 9 13 22 72 112 154 121 115 21 219 318 585 744 576 876 1073 1650 1852 1833 1631 1502 1532 1496 1306 1242 1191 1034 976 856 795 1127 1079 1026 894 925 1216 1241 1191 748 587 629 580 515
46 28 1 0 0 6 5 58 67 83 138 133 147 134 58 407 352 326 324 488 688 962 1307 1310 1328 1249 1592 1321 1394 1437 1248 802 873 623 541 509 1013 1068 1053 1094 1122 1186 969 750 573 419 626 548 512
0 3 0 0 0 1 12 52 84 123 136 145 128 111 221 324 367 208 242 461 697 1376 1411 1356 1311 1092 1516 1318 1349 1003 407 707 590 608 215 748 953 1105 915 1063 1097 1028 827 939 685 628 388 468 694
25 57 0 0 0 7 36 51 101 104 115 120 103 20 122 327 425 326 331 593 928 1216 1352 1447 1640 1426 1319 1233 889 727 362 222 456 105 330 819 459 415 665 593 804 868 1078 938 911 240 182 415 533
109 5 0 0 13 0 17 109 97 112 115 90 79 59 172 358 447 313 332 457 806 977 1110 1248 1139 1221 1049 1059 864 494 145 225 417 59 813 969 795 614 571 280 603 757 1030 1106 932 461 268 507 300
108 35 0 78 33 0 0 155 131 84 100 78 116 143 361 308 384 242 300 222 407 537 733 895 983 803 648 642 861 588 577 280 342 503 468 775 829 871 827 942 1142 981 814 1051 719 799 674 510 488
252 43 198 196 87 0 56 180 221 108 63 108 59 112 344 368 390 349 297 144 388 419 518 762 731 856 681 669 652 351 325 208 106 111 181 574 743 781 700 856 1253 1003 1071 1006 738 356 390 495 418
97 351 378 92 54 53 120 91 72 106 148 52 61 192 322 370 365 405 402 373 432 351 511 713 739 634 487 387 293 194 172 13 1 65 300 462 620 721 622 469 687 636 586 205 120 101 177 289 357
298 318 107 44 5 13 66 88 112 162 181 82 104 234 271 366 398 440 381 321 338 366 379 543 502 369 208 175 37 52 81 0 12 250 412 447 475 618 784 850 602 175 23 67 9 15 2 139 247
291 159 84 38 57 74 16 51 50 104 162 38 38 88 197 294 355 369 292 236 256 251 300 320 207 156 77 8 3 10 64 7 59 114 174 221 398 765 652 680 550 150 57 122 95 175 46 96 461
108 52 143 156 24 106 57 9 31 158 169 27 19 52 102 193 195 228 304 190 193 207 212 150 75 6 0 0 10 36 0 23 42 45 359 400 542 674 932 759 662 698 631 166 246 276 281 55 143
0 4 74 174 91 193 87 73 62 188 151 49 40 33 42 96 108 139 184 117 233 119 64 98 18 12 0 0 1 9 22 21 64 275 509 696 553 862 1154 928 1232 1038 628 604 582 542 353 390 230
0 0 0 160 236 196 102 87 18 106 160 79 66 58 55 86 95 70 81 158 184 248 153 113 94 13 12 0 0 0 56 167 260 298 365 661 798 857 1269 1475 1403 1043 807 802 772 636 528 465 865
0 0 0 44 349 220 162 69 37 87 165 142 137 132 118 116 112 81 64 64 128 249 278 249 145 42 23 0 0 0 224 381 241 263 883 625 860 1201 1147 1184 1023 1231 1205 1177 774 681 619 508 559
0 0 0 69 272 345 245 129 84 52 70 74 109 160 141 122 161 138 69 59 78 150 241 244 207 117 3 0 0 13 169 250 221 584 1008 694 603 979 1156 763 618 1173 1272 1188 475 977 646 291 491
0 0 1 60 491 498 419 241 122 111 54 54 37 38 39 45 91 66 94 105 67 80 161 293 250 173 3 4 57 214 47 521 483 681 662 933 1180 985 870 763 940 1285 1350 1149 532 1088 531 112 276
0 0 3 59 290 511 376 265 251 210 224 126 82 74 17 8 27 119 110 130 103 91 103 222 300 216 119 99 198 270 360 264 366 495 780 1189 1093 1089 1208 1156 1274 1645 1373 1301 1126 1200 456 319 303
0 0 27 161 157 65 116 14 52 0 7 96 170 85 24 11 48 87 114 101 113 107 82 106 294 195 170 223 134 27 254 122 236 267 709 1114 1198 1392 1422 1564 1586 1469 1318 912 503 759 759 208 248
0 32 51 245 211 137 141 45 0 0 15 2 24 160 71 0 22 26 86 123 128 150 103 73 110 114 181 184 119 4 356 311 448 170 210 434 967 1138 1448 1568 1466 1371 1518 1280 561 859 1064 469 420
76 85 112 232 283 52 16 15 0 0 4 9 0 131 117 26 30 73 144 192 224 154 111 118 121 76 225 203 74 58 251 235 52 376 351 485 464 770 988 1140 1070 1580 1218 1216 1027 495 668 1024 950
2 30 0 30 42 0 2 1 0 6 3 10 3 20 114 100 97 92 160 112 155 135 116 89 98 127 164 237 218 55 186 257 86 227 651 660 555 537 762 965 841 1104 1057 1071 812 642 531 872 1110
7 2 0 0 0 0 1 0 0 6 26 22 4 8 161 92 151 210 233 154 159 185 140 119 98 163 155 131 222 203 170 169 148 23 288 983 1067 1262 1256 1329 1428 1146 1401 985 526 405 947 1366 1396
0 0 0 0 0 0 0 1 30 143 109 72 60 75 137 212 134 211 238 217 187 207 147 144 175 160 185 142 175 196 144 138 63 44 47 492 1239 1232 1135 1170 1247 1117 1247 1310 695 744 447 1119 1318
0 0 0 0 0 0 2 0 0 232 226 94 137 136 180 288 265 212 288 246 209 192 216 178 210 177 119 173 214 179 103 92 73 55 17 21 767 1201 1091 968 915 1042 1206 1369 1194 1219 666 960 1067
0 0 0 0 0 0 0 0 81 158 395 206 230 194 176 309 379 362 312 312 298 241 153 157 200 201 163 124 169 181 140 99 75 60 11 34 54 1170 1205 1087 946 947 1044 971 947 1068 1261 1261 894
0 0 0 0 0 0 0 0 10 124 365 484 439 429 362 187 138 299 445 415 402 349 188 146 167 192 203 188 171 114 159 146 132 129 106 206 41 384 1077 1305 1161 1046 1007 950 1064 770 1110 1359 1034
CIN
-105 -118 -79 0 0 -6 -42 -50 -65 -53 -45 -78 -61 -82 -67 -95 -78 -59 -162 -141 -125 -84 -7 0 -3 -5 -18 -8 -3 0 -2 -3 0 0 0 0 0 0 0 -6 -9 -14 -11 -3 -6 -9 -22 -20 -29
-105 -94 0 0 0 0 -35 -40 -51 -64 -74 -78 -78 -84 -73 -76 -114 -135 -152 -95 -67 -49 -6 -1 -2 -7 -7 -12 -3 -1 -5 -2 -1 -3 -1 0 0 -3 -6 -8 -10 -8 -6 -4 -1 0 0 -2 -12
-217 -201 0 0 0 0 -29 -46 -78 -58 -68 -66 -52 -78 -88 -96 -96 -112 -76 -75 -43 -27 -4 0 -6 -8 -5 -8 0 -2 0 -4 -2 -14 -2 -4 -3 -3 -2 -1 -4 -2 -1 0 -5 0 0 0 -7
-158 0 0 0 0 0 -24 -61 -83 -52 -79 -76 -64 -56 -92 -113 -79 -48 -35 -53 -20 -11 0 -1 -1 -2 0 -9 0 0 -1 0 -1 -1 -1 -9 0 -3 0 0 0 -1 0 -5 0 0 -1 -1 -13
-158 -119 0 0 0 -8 -64 -96 -94 -33 -54 -64 -66 -55 -85 -46 -85 -48 -38 -53 -34 -13 0 0 0 -1 -3 -1 0 0 0 -1 0 -3 -6 -6 0 0 -1 0 0 0 0 0 -4 -18 -18 -24 -27
-47 -106 -15 0 0 -49 -57 -77 -70 -61 -76 -70 -61 -55 -61 -15 -53 -55 -50 -33 -20 -24 -1 0 -2 -7 -1 -4 -1 -1 -2 -3 -3 -5 -8 -11 -1 -1 0 0 0 0 -1 -6 -12 -29 -12 -20 -30
0 -11 0 0 -5 -41 -66 -64 -58 -110 -59 -56 -83 -45 -44 -12 -20 -56 -36 -18 -7 0 0 0 0 -2 -1 -1 -1 -2 -8 -2 -7 -20 -39 -2 -2 0 0 0 0 0 -4 -5 -12 -16 -29 -17 -10
-91 -62 0 0 0 -37 -54 -74 -84 -71 -61 -87 -87 -40 -29 -18 -15 -34 -16 -1 0 0 0 0 0 -1 0 0 -3 -3 -8 -16 -15 -55 -33 0 -6 -6 -1 -9 -3 -3 -1 -4 -3 -50 -55 -47 -33
-107 -10 0 0 -38 -9 -96 -53 -70 -90 -60 -86 -91 -62 -57 -36 -10 -27 -5 0 0 0 0 0 -8 -8 -8 -1 -1 -4 -17 -16 -8 -69 -1 -2 0 0 -4 -30 -15 -1 -1 -1 -3 -28 -48 -39 -55
-60 -35 0 -38 -48 0 0 -42 -64 -56 -57 -69 -80 -89 -54 -41 -23 -39 -11 -29 -10 -16 -12 -1 -9 -25 -24 -8 0 -4 -8 -23 -17 -11 -14 -3 -2 -1 -1 -3 -1 -1 -9 -6 -11 -17 -22 -31 -20
-51 -45 -36 -36 -62 0 -37 -32 -47 -50 -38 -46 -61 -110 -39 -21 -21 -25 -16 -38 -27 -22 -23 -6 -9 -4 -1 0 0 -7 -14 -21 -28 -38 -37 -16 -11 -13 -11 -11 -3 -3 -4 -3 -12 -47 -38 -24 -28
-47 -42 -37 -66 -93 -68 -35 -49 -55 -42 -47 -76 -91 -83 -52 -24 -32 -21 -7 -16 -18 -23 -15 -5 -6 -7 -6 -3 -6 -12 -21 -80 -26 -52 -28 -28 -18 -28 -31 -29 -14 -16 -17 -66 -86 -68 -64 -51 -46
-43 -47 -90 -142 -207 -95 -51 -44 -52 -34 -65 -83 -96 -77 -51 -31 -23 -9 -7 -11 -16 -18 -20 -6 -8 -22 -27 -28 -61 -48 -37 0 -24 -22 -38 -39 -43 -34 -34 -30 -35 -68 -150 -125 -130 -100 -127 -66 -52
-77 -66 -102 -151 -88 -84 -79 -41 -79 -44 -56 -85 -81 -65 -55 -46 -35 -23 -14 -14 -24 -21 -34 -20 -23 -29 -56 -21 -120 -102 -69 -176 -84 -55 -52 -70 -55 -36 -45 -52 -54 -87 -151 -111 -95 -60 -89 -90 -22
-127 -105 -76 -67 -139 -58 -106 -72 -87 -77 -56 -56 -64 -63 -63 -51 -55 -45 -25 -23 -30 -35 -36 -46 -42 -34 0 0 -83 -79 -2 -94 -68 -81 -38 -53 -51 -45 -40 -50 -53 -54 -70 -131 -95 -78 -50 -104 -62
0 -76 -48 -63 -88 -77 -95 -30 -65 -78 -66 -58 -65 -76 -82 -66 -57 -50 -47 -24 -29 -20 -62 -48 -55 -62 0 0 -22 -100 -98 -86 -65 -43 -36 -40 -45 -39 -32 -32 -30 -50 -68 -78 -72 -53 -55 -44 -65
0 0 0 -40 -74 -71 -79 -43 -61 -71 -64 -59 -63 -65 -75 -66 -73 -68 -88 -47 -32 -29 -36 -40 -39 -76 -83 0 0 0 -75 -50 -44 -45 -43 -40 -40 -41 -25 -18 -24 -48 -54 -61 -56 -59 -56 -43 -37
0 0 0 -71 -60 -96 -84 -60 -91 -98 -74 -56 -49 -54 -62 -62 -58 -69 -89 -72 -44 -31 -31 -29 -30 -42 -80 0 0 0 -49 -42 -53 -45 -31 -42 -35 -32 -31 -23 -30 -31 -30 -33 -53 -57 -80 -85 -75
0 0 0 -73 -74 -87 -85 -85 -84 -120 -138 -102 -78 -74 -63 -54 -52 -75 -91 -76 -53 -36 -28 -30 -29 -30 -14 0 0 -91 -48 -51 -50 -37 -35 -44 -51 -41 -35 -31 -37 -25 -19 -25 -59 -37 -55 -97 -93
0 0 -7 -89 -69 -78 -80 -83 -111 -128 -167 -161 -116 -112 -93 -67 -113 -124 -113 -95 -80 -45 -41 -29 -33 -46 -40 -16 -63 -47 -62 -32 -33 -36 -43 -47 -46 -42 -40 -39 -22 -22 -14 -27 -46 -35 -52 -126 -132
0 0 -23 -62 -89 -101 -92 -76 -77 -112 -158 -172 -168 -149 -126 -92 -86 -121 -128 -115 -91 -86 -78 -55 -41 -52 -78 -65 -39 -39 -37 -54 -36 -36 -33 -37 -50 -40 -29 -26 -16 -16 -18 -10 -21 -27 -66 -49 -115
0 -7 -66 -62 -59 -50 -132 -51 -69 0 -162 -189 -181 -165 -162 -118 -127 -107 -134 -120 -105 -99 -95 -88 -44 -49 -60 -43 -49 -76 -38 -37 -43 -43 -39 -42 -42 -29 -24 -15 -15 -14 -16 -23 -44 -45 -60 -90 -60
-5 -82 -70 -72 -71 -101 -101 -91 0 0 -81 -31 -230 -195 -164 -34 -105 -146 -100 -104 -131 -131 -113 -104 -71 -74 -56 -59 -78 -123 -33 -35 -35 -69 -57 -50 -44 -38 -23 -18 -18 -20 -18 -21 -44 -36 -37 -62 -56
-110 -97 -105 -131 -96 -37 -110 -96 0 -13 -108 -174 -13 -236 -216 -206 -134 -101 -105 -104 -123 -154 -140 -120 -83 -77 -61 -67 -104 -109 -52 -56 -84 -45 -39 -31 -40 -34 -34 -31 -17 -20 -14 -22 -31 -61 -49 -31 -39
-71 -53 0 -14 -17 0 -120 -67 0 -99 -110 -210 -265 -285 -250 -228 -175 -117 -122 -142 -148 -150 -144 -140 -120 -118 -99 -93 -101 -124 -74 -61 -99 -57 -28 -35 -33 -35 -27 -38 -18 -16 -16 -31 -44 -56 -54 -22 -23
-90 -35 0 0 0 0 -23 0 0 -212 -237 -258 -273 -316 -252 -247 -202 -114 -108 -150 -153 -152 -160 -158 -156 -129 -145 -143 -119 -117 -110 -87 -76 -124 -55 -27 -24 -21 -34 -34 -25 -11 -24 -35 -55 -57 -27 -22 -19
0 0 0 0 0 0 0 -3 -130 -173 -180 -202 -245 -247 -226 -194 -217 -149 -126 -152 -172 -163 -177 -173 -159 -156 -163 -157 -141 -138 -143 -122 -110 -115 -119 -52 -33 -31 -36 -34 -29 -23 -24 -33 -51 -34 -43 -18 -22
0 0 0 0 0 0 -26 0 0 -56 -92 -177 -168 -175 -185 -182 -187 -185 -156 -153 -177 -186 -185 -202 -188 -174 -166 -166 -160 -161 -164 -161 -135 -116 -145 -123 -38 -29 -37 -33 -37 -37 -31 -34 -36 -27 -38 -16 -12
0 0 0 0 0 0 0 0 -40 -46 -72 -103 -140 -150 -157 -147 -148 -150 -177 -199 -212 -240 -238 -218 -225 -210 -197 -202 -185 -178 -181 -178 -168 -156 -149 -121 -111 -30 -29 -29 -30 -32 -32 -30 -16 -19 -11 -15 -12
0 0 0 0 0 0 0 0 -112 -74 -99 -117 -104 -126 -152 -162 -164 -146 -158 -188 -196 -210 -253 -258 -234 -213 -191 -199 -194 -198 -188 -187 -170 -161 -143 -111 -131 -67 -32 -23 -28 -34 -38 -42 -41 -19 -15 -13 -16
Wind_Speed
17 17 16 14 13 14 13 14 14 15 17 17 16 16 15 16 15 15 11 5 7 13 12 17 16 8 11 6 9 12 13 14 17 17 20 20 19 19 19 18 18 18 18 18 18 18 17 17 16
15 17 14 13 16 13 12 12 12 16 17 17 16 17 16 14 13 14 13 1 13 11 11 15 15 5 10 5 7 9 12 14 13 14 17 18 18 19 18 18 18 18 18 19 19 18 17 17 17
16 14 14 20 17 11 12 8 12 16 17 16 15 15 15 15 14 14 6 12 14 11 12 10 11 12 4 5 9 11 13 13 13 14 17 16 17 20 19 19 19 19 19 19 19 18 18 18 18
17 17 19 22 23 13 16 18 16 15 16 17 15 16 15 14 17 10 12 15 14 12 10 14 12 10 6 6 9 10 15 15 12 14 16 16 20 20 20 20 20 19 20 20 20 19 18 18 18
17 18 20 22 21 18 15 11 14 13 15 17 15 15 15 10 15 15 15 13 12 11 9 14 12 5 11 13 7 11 14 17 16 15 14 16 19 20 21 20 20 20 21 20 19 19 18 18 18
18 18 21 22 20 13 2 14 13 13 14 14 14 15 14 5 17 16 13 14 8 9 6 5 13 19 2 4 10 12 14 13 14 15 12 15 17 19 20 20 20 20 20 19 19 18 17 18 18
18 19 20 22 21 14 5 10 14 13 15 15 15 15 12 13 16 13 8 8 7 5 7 7 9 15 14 11 10 13 12 12 12 13 12 10 15 20 20 20 19 19 19 18 18 18 19 18 18
16 17 20 21 20 18 12 10 11 11 14 14 14 14 13 15 17 12 7 7 6 3 3 5 6 6 8 8 9 11 11 14 12 14 20 21 20 20 19 19 18 18 17 16 16 17 16 16 15
15 17 21 21 19 17 13 11 11 12 12 14 14 12 10 16 18 11 11 9 3 6 4 4 5 6 8 9 9 10 11 13 14 14 10 12 21 21 20 18 18 17 17 16 15 14 14 14 15
14 16 16 17 18 15 10 11 10 9 11 13 15 12 11 17 20 16 23 23 13 11 4 4 6 6 7 9 8 8 11 13 15 6 16 19 21 20 19 18 16 15 15 14 14 13 13 13 14
14 14 10 19 11 12 10 9 11 10 11 13 15 12 15 18 20 17 23 16 13 7 6 4 5 5 6 7 7 6 9 12 11 11 21 22 21 20 18 17 16 16 16 14 14 13 13 13 13
15 17 19 9 14 12 9 9 11 9 12 14 11 16 18 19 18 18 19 16 11 9 5 6 6 5 6 7 6 6 9 10 7 20 22 21 21 20 18 17 17 17 16 15 14 13 12 14 14
18 18 19 16 14 11 11 10 12 8 11 11 10 15 17 17 16 13 11 8 8 11 10 7 4 5 5 5 6 5 5 4 16 19 21 21 21 20 18 17 17 16 15 15 14 13 13 13 13
18 18 16 17 13 12 9 8 17 14 10 10 11 15 14 15 15 12 11 15 15 15 11 8 12 5 5 5 4 6 7 16 19 20 21 21 20 20 18 17 16 15 14 13 14 15 14 15 15
18 18 16 15 13 13 12 8 21 11 12 11 10 9 10 14 13 13 11 13 16 19 7 8 10 11 6 13 20 19 19 23 22 21 22 22 20 20 18 17 15 14 14 13 14 15 17 16 15
18 16 18 15 13 13 10 12 10 7 5 5 7 5 8 14 17 15 13 10 14 13 11 4 5 17 23 26 26 26 25 24 22 22 21 21 21 20 19 17 15 14 14 14 15 15 15 16 15
18 20 20 17 10 13 9 12 11 8 6 3 10 17 12 1 7 16 13 11 11 16 16 11 8 20 27 27 25 26 24 23 23 23 21 20 22 21 19 17 15 15 13 13 13 14 14 12 13
21 21 20 18 16 9 7 13 9 12 17 12 27 27 26 25 4 10 12 12 8 10 18 17 5 13 28 25 25 26 24 23 23 24 22 20 20 21 13 3 15 14 12 12 13 13 14 12 12
21 20 21 19 16 12 14 13 14 14 18 23 28 26 25 25 25 9 11 9 9 5 11 15 9 13 4 2 4 23 24 23 23 23 21 20 21 16 8 11 11 11 12 11 13 14 15 16 17
20 22 19 16 16 16 20 23 19 15 17 19 22 21 17 21 9 9 9 10 12 11 13 15 20 12 7 1 14 15 19 22 23 21 20 21 17 11 10 9 12 10 12 10 11 12 13 15 15
20 20 19 17 17 18 23 21 16 19 19 19 23 21 17 19 16 11 8 10 12 13 17 19 14 14 10 16 18 18 15 21 22 22 20 17 9 9 11 10 12 10 10 10 10 12 12 8 14
22 19 19 17 19 20 20 22 20 17 20 9 21 20 13 12 16 11 7 10 13 15 17 21 13 7 12 20 23 22 13 11 19 19 17 16 17 18 12 12 9 11 10 10 16 19 11 17 8
14 17 17 19 20 21 19 19 18 20 19 20 14 18 11 13 4 11 13 15 13 15 15 20 24 24 20 7 11 9 17 16 17 17 19 18 18 18 17 16 13 9 9 10 16 13 20 12 15
8 16 17 17 18 18 17 18 20 20 21 21 19 21 18 13 5 9 14 13 12 14 13 15 20 29 29 27 25 29 30 24 21 20 20 19 19 19 21 21 13 8 9 12 14 20 19 20 17
14 17 19 18 18 19 19 19 23 22 21 21 18 9 13 15 14 9 11 13 15 15 15 16 16 23 28 30 28 26 30 29 27 26 23 22 21 21 20 19 23 15 19 18 20 16 21 20 21
14 16 20 21 22 23 21 21 21 20 20 17 14 9 9 10 7 9 14 17 15 14 15 15 17 20 21 23 27 24 21 25 28 26 24 24 23 23 21 18 20 15 14 16 19 11 21 23 22
7 13 15 20 20 22 19 21 20 15 13 15 14 9 21 19 11 9 11 12 13 14 16 15 17 18 18 19 16 20 22 23 30 30 28 27 26 23 19 19 18 21 13 15 17 19 21 24 19
9 7 9 4 20 21 18 21 20 16 13 12 12 10 10 21 19 16 16 14 11 13 13 14 16 19 16 15 16 17 16 20 29 31 31 29 27 23 21 21 19 19 19 15 13 20 16 20 19
9 5 17 7 14 21 22 20 18 17 13 10 10 15 16 18 18 17 15 17 14 11 9 10 12 13 12 13 10 11 11 9 8 21 26 23 22 21 22 21 23 25 26 27 22 27 20 22 23
10 7 8 16 17 19 23 25 19 19 18 13 9 10 11 13 15 15 15 11 8 9 9 10 8 7 6 4 1 3 2 4 9 13 20 23 22 23 23 22 20 24 27 24 25 29 27 23 23
Wind_Direction
55 53 77 113 63 23 26 22 340 7 36 53 72 69 69 61 73 42 288 265 80 93 83 94 88 232 222 356 29 39 42 50 66 68 92 100 97 97 102 98 98 97 97 76 90 84 75 87 86
42 39 103 83 12 36 30 1 358 18 50 53 52 58 66 84 27 36 75 333 100 88 82 88 87 28 238 328 12 24 39 51 38 50 87 99 93 105 98 98 95 91 84 82 91 86 78 80 96
13 96 46 8 5 40 84 21 356 25 55 53 65 32 45 80 52 80 20 100 101 89 83 74 76 67 339 339 29 39 49 45 39 60 91 79 90 115 98 95 97 93 85 86 92 89 92 89 110
40 341 343 353 358 73 92 106 72 30 31 22 45 52 3 254 80 49 86 101 96 89 78 90 78 60 31 295 40 33 59 67 32 55 71 79 129 116 110 107 103 94 96 99 96 91 97 123 121
332 340 336 350 23 83 89 337 77 18 51 8 74 83 43 271 70 87 97 100 96 89 77 95 83 343 251 242 2 36 61 88 77 72 57 79 104 105 117 111 104 106 99 96 90 91 102 122 139
335 347 348 339 4 49 91 156 76 50 24 41 55 65 50 245 86 93 93 96 80 83 67 44 86 115 17 19 53 59 72 56 68 71 42 101 81 98 104 110 111 107 102 101 96 101 110 134 135
5 349 348 344 340 30 359 81 16 77 55 52 54 79 350 78 97 91 80 74 74 61 68 60 68 94 93 78 43 79 56 50 49 57 37 26 73 108 106 114 115 110 107 100 92 110 103 109 121
46 27 345 349 344 338 3 29 27 8 50 29 17 83 58 105 105 88 71 67 67 352 4 44 303 332 339 15 38 58 26 66 55 72 135 134 120 130 116 128 118 111 101 90 103 110 105 102 95
60 7 338 337 340 328 69 9 6 340 39 15 325 342 16 100 106 90 88 82 29 279 311 8 344 345 353 335 12 43 33 63 68 85 51 56 131 137 127 127 133 130 133 136 129 119 113 108 132
73 29 27 11 339 342 21 22 16 32 51 20 331 340 67 103 116 111 135 132 107 100 9 334 321 356 353 336 359 47 55 71 82 327 233 191 151 152 145 134 130 113 125 126 100 112 127 125 145
52 45 93 316 63 37 46 4 352 55 47 334 303 64 97 112 120 121 142 122 115 87 63 352 48 4 350 13 14 15 55 68 55 258 195 175 161 157 138 137 137 129 113 98 93 98 107 118 136
27 17 354 87 31 43 41 359 348 28 344 303 4 90 104 116 122 128 134 126 107 102 70 71 68 357 347 30 28 46 75 67 305 207 190 173 165 156 145 138 125 123 127 120 123 106 83 77 111
356 356 348 41 33 36 57 334 321 42 347 338 52 88 103 109 110 111 112 96 96 118 110 86 328 19 353 20 22 21 38 350 235 217 194 177 180 160 144 132 115 113 110 116 108 95 100 121 117
343 349 4 13 52 25 54 10 271 300 73 41 76 95 94 103 108 98 105 135 136 136 119 100 117 53 343 359 12 313 287 240 225 216 198 188 185 175 147 143 126 123 119 122 116 93 113 133 111
343 337 351 15 40 15 36 65 250 328 95 86 85 79 81 107 104 113 106 127 136 143 111 105 107 103 66 106 144 233 232 216 213 216 200 195 198 195 180 154 138 133 126 129 120 108 99 104 130
341 336 335 8 40 347 30 339 358 8 24 46 70 47 79 122 139 132 121 107 129 123 126 91 87 134 151 178 193 192 198 208 224 208 200 210 189 185 187 173 172 135 113 109 110 104 103 111 142
330 323 318 330 3 335 96 327 356 79 329 2 169 153 151 63 77 144 123 110 115 135 139 131 115 146 168 196 211 202 211 222 217 209 205 214 206 205 168 174 216 129 122 104 97 94 112 137 128
310 309 309 310 296 43 35 153 44 122 158 149 196 202 212 236 20 120 121 114 107 126 145 144 120 128 185 219 220 210 217 223 227 210 212 230 234 200 118 343 162 151 137 99 82 88 91 119 175
308 308 294 293 298 333 152 157 164 154 170 186 201 191 192 201 226 113 120 99 106 115 135 145 138 259 275 301 276 235 232 232 230 226 242 248 224 153 47 12 113 116 157 111 79 58 52 45 66
302 284 293 300 298 300 299 239 202 176 178 180 184 178 170 190 131 127 113 113 122 133 145 146 154 139 133 250 259 262 253 245 238 248 254 254 213 99 78 64 148 122 165 117 100 65 63 46 83
297 293 297 304 303 298 283 277 320 235 192 189 194 188 178 181 165 140 117 119 125 133 150 155 152 148 142 255 256 258 273 249 243 246 261 279 326 5 100 86 138 58 110 131 164 159 71 204 76
270 278 285 298 294 286 306 289 306 307 285 166 189 181 165 159 154 137 120 120 129 138 144 160 154 169 255 253 248 253 278 293 259 261 277 284 278 280 340 150 54 39 68 95 215 265 73 228 42
315 295 296 295 282 273 264 273 290 289 290 271 163 169 155 152 156 146 146 145 133 132 135 154 167 168 162 158 266 273 270 276 272 277 266 273 277 285 302 308 334 90 94 65 190 130 202 108 316
76 305 310 309 291 270 287 296 274 318 301 304 290 166 154 146 142 140 151 139 131 129 125 139 155 177 178 175 172 187 217 251 262 269 276 275 285 290 282 275 333 80 89 351 160 205 190 216 265
150 296 284 288 285 279 307 319 266 281 287 276 279 191 134 144 143 127 134 143 141 137 130 135 143 163 177 184 182 178 197 231 246 253 268 277 281 283 290 303 259 323 288 290 250 288 214 204 228
153 183 285 286 278 279 301 290 300 311 300 333 315 332 110 126 125 130 138 147 144 138 136 134 142 152 159 169 180 178 174 195 251 259 266 271 268 277 295 296 287 312 320 315 286 334 275 240 239
99 163 193 288 291 283 300 311 312 320 316 342 346 351 130 138 128 126 129 134 137 139 145 143 144 149 154 162 162 172 178 184 233 246 252 259 268 284 296 292 298 288 323 313 298 299 268 247 283
153 83 149 40 282 280 295 300 299 314 313 347 355 3 36 138 138 135 140 137 134 145 142 148 153 160 153 154 163 170 174 183 208 246 249 261 270 284 290 291 298 299 299 310 312 292 300 280 285
18 79 280 297 318 280 282 292 297 290 312 344 23 70 80 114 125 130 129 142 136 127 133 142 150 155 156 158 157 164 170 176 184 279 275 281 286 289 290 293 289 286 278 276 288 268 289 282 280
348 118 131 177 304 291 276 277 270 252 256 295 358 77 74 90 101 106 118 103 100 118 130 144 149 158 159 153 189 205 239 291 294 291 285 283 284 285 288 293 298 289 283 290 283 266 271 282 283